sat.trackr.live / text

‹ back to catalog

ONEWEB-0196

NORAD 48218 · 2021-031J

PAYLOAD ACTIVE UNKNOWN

§ Identity

Operator
Country
UK
Launch date
2021-04-25
Launch site
VOSTO
Launch vehicle
Mass (kg)
RCS (m²)

Purposes: comms

External: N2YO · Heavens-Above · Gunter

§ Orbital elements

Epoch: 2026-09-13T01:24:06.992064Z

Period
109.55 min
Inclination
87.8900°
Eccentricity
0.0001732
Mean motion
13.14502754 rev/d
Perigee alt
1,204.5 km
Apogee alt
1,207.1 km
Semi-major
7,583.9 km
B*
4.5791e-5
RAAN
272.1846°
Arg perigee
90.7422°
Mean anomaly
269.3906°
Rev number
25,977

§ Raw data

ONEWEB-01961 48218U 21031J   26256.05841426  .00000030  00000+0  45791-4 0  99932 48218  87.8900 272.1846 0001732  90.7422 269.3906 13.14502754259771

JSON: /api/v1/satellites/48218 · /tle

For live sub-satellite position, see the globe view (requires WebGL).

§ Visibility from observer

Set your observer location to see the next 7 days of passes ≥ 10°. The values pass through the URL so the page stays shareable.

No JS? Fill the form by hand. The geolocation button needs JavaScript.